Regional Weather Roundup
Issued by NWS

Home | Current Version | Previous Version | Graphics & Text | Print | Product List | Glossary On
Versions: 1 2 3 4 5 6 7 8 9 10 11 12 13 14 15 16 17 18 19 20 21 22 23 24 25 26 27
000
ASUS45 KBOU 162306
RWRCO

WEATHER ROUNDUP FOR COLORADO
NATIONAL WEATHER SERVICE DENVER/BOULDER CO
500 PM MDT WED APR 16 2014

NOTE: "FAIR" INDICATES FEW OR NO CLOUDS BELOW 12000 FEET WITH NO
SIGNIFICANT WEATHER AND/OR OBSTRUCTIONS TO VISIBILITY.

COZ001>005-013-030-031-170000-
...NORTHWEST COLORADO...

CITY           SKY/WX    TMP DP  RH WIND       PRES   REMARKS
CRAIG          PTSUNNY   50  11  20 W9        29.95S
HAYDEN         PTSUNNY   46  10  23 SW6       29.98F
MEEKER         PTSUNNY   53   6  15 VRB5      29.94S
MOUNT WERNER   NOT AVBL
STEAMBOAT SPGS PTSUNNY   46   3  17 W8        29.96S
WALDEN         MOSUNNY   37   7  28 SW12      29.97S
$$

COZ006>008-011-170000-
...WEST CENTRAL VALLEYS...

CITY           SKY/WX    TMP DP  RH WIND       PRES   REMARKS
GRAND JUNCTION CLOUDY    57  12  17 NW7       29.89S
MONTROSE       CLOUDY    57  17  21 N8        29.92S
EAGLE          PTSUNNY   54   9  16 SW18G24   29.91S
RIFLE          CLOUDY    58  11  15 SW6       29.89R
DELTA          CLOUDY    60  13  15 W7        29.90R
NUCLA            N/A     55  21  26 W12G21    29.95R
$$

COZ017>023-064>068-170000-
...SOUTHWEST COLORADO...

CITY           SKY/WX    TMP DP  RH WIND       PRES   REMARKS
DURANGO        CLOUDY    55  18  23 W17G30    29.89R
CORTEZ         PTSUNNY   56  25  30 W21G29    29.91R
PAGOSA SPRINGS CLOUDY    53  15  22 SW17G29   29.90R
TELLURIDE      NOT AVBL
WOLF CREEK PAS CLOUDY    30  19  64 SW22G40   30.01S WCI  17
$$

COZ009-010-012-014-032>034-037-058>063-170000-
...CENTRAL COLORADO...

CITY           SKY/WX    TMP DP  RH WIND       PRES   REMARKS
ASPEN          CLOUDY    46  19  34 W14G22    29.93R
BUENA VISTA    CLOUDY    52  10  18 W16G24    29.87S
COPPER MTN     CLOUDY    32   5  32 W17G26    30.02R WCI  21
BERTHOUD PASS  CLOUDY    21  12  68 MISG      30.04R
COTTONWOOD PAS CLOUDY    45  10  24 N6        29.94S
GUNNISON       CLOUDY    48  16  27 SW13G22   29.94R
KREMMLING      PTSUNNY   50   5  16 N10G16    29.94S
LEADVILLE      CLOUDY    37  13  37 NW13G20   29.95R
MONARCH PASS   CLOUDY    30  12  47 W35G43    30.09R WCI  14
SALIDA         CLOUDY    50  25  37 SE17G28   29.95R
SUNLIGHT       CLOUDY    36  18  48 CALM      30.03R
WILKERSON PASS LGT SNOW  23  21  93 NE8       30.04R VSB 3/4 WCI  14
$$

COZ069>075-170000-
...SAN LUIS VALLEY/SANGRE DE CRISTO MOUNTAINS...

CITY           SKY/WX    TMP DP  RH WIND       PRES   REMARKS
ALAMOSA        CLOUDY    55  21  26 NW12      29.85R
LA VETA PASS   HVY SNOW  28  27  93 E14G23    30.00R VSB<1/4 WCI  17
SAGUACHE       CLOUDY    55  16  21 NW13G24   29.88S
$$

COZ035-036-038>040-170000-
...NORTHERN COLORADO FRONT RANGE...

CITY           SKY/WX    TMP DP  RH WIND       PRES   REMARKS
DENVER INTL AP CLOUDY    50  20  30 NE16G26   29.95R
DMNS CITY PARK   N/A     51  19  28 NE8G18    29.94R
AURORA         CLOUDY    50  21  32 NE10      29.96R
FRONT RANGE AP NOT AVBL
ERIE MUNI ARPT CLOUDY    51  20  29 NE12G17   29.96R
BOULDER MUN AP CLOUDY    50  23  34 E9G18     29.96R
CENTENNIAL     CLOUDY    48  20  32 E8        29.95R
BROOMFIELD     CLOUDY    48  23  37 NE9G18    29.97R
FORT COLLINS   CLOUDY    50  25  37 NE13      29.97R
LONGMONT       CLOUDY    53  24  32 NE9G16    29.97R
$$

COZ041-046-047-076>085-087-088-170000-
...PIKES PEAK/PALMER DIVIDE AND SOUTHERN FOOTHILLS...

CITY           SKY/WX    TMP DP  RH WIND       PRES   REMARKS
COLO. SPRINGS  LGT RAIN  40  31  70 N13       30.00R
A. F. ACADEMY  FLURRIES  34  32  93 W6        30.01R WCI  29
ELLICOTT       NOT AVBL
FALCON         FLURRIES  38  29  70 N9        30.00R
FORT CARSON    CLOUDY    41  33  74 N18       29.98R
LIMON          CLOUDY    49  21  33 NE16G25   29.96R
MONUMENT HILL  CLOUDY    39  21  48 E7        29.97R
TRINIDAD       LGT RAIN  48  30  49 E12G30    29.95R
$$

COZ042>045-048>051-090-091-170000-
...NORTHEAST COLORADO...

CITY           SKY/WX    TMP DP  RH WIND       PRES   REMARKS
GREELEY ARPT   PTSUNNY   52  23  32 NE16      29.96R
AKRON          PTSUNNY   50  22  33 N23       29.93S
BURLINGTON     CLOUDY    52  27  38 NE23      29.95R
WRAY           MOSUNNY   55  31  39 N23G30    29.94S
STERLING       PTSUNNY   57  28  33 N17G25    29.94R
HOLYOKE        MOSUNNY   55  34  44 N20       29.96R
FORT MORGAN    PTSUNNY   54  19  25 N24G30    29.94S
$$

COZ086-089-092>099-170000-
...SOUTHEAST COLORADO...

CITY           SKY/WX    TMP DP  RH WIND       PRES   REMARKS
PUEBLO         CLOUDY    52  30  43 S16       29.95R
LA JUNTA       CLOUDY    57  23  26 E20G28    29.92R
LAMAR          CLOUDY    60  21  22 NE18      29.90R
SPRINGFIELD      N/A     59  22  24 NE17G26   29.90R
$$



USA.gov is the U.S. government's official web portal to all federal, state and local government web resources and services.